Location: *
(35.8942°N, 23.3025°E)
Time: 23:46:29
(UTC+00:00)

SL-24 R/B - RUBIN 2 - Pass Details

Date: 21 September 2021
Orbit: 593 x 1002 km, 64.6° (Epoch: 22 October)

Event Time Altitude Azimuth Distance (km) Brightness Sun altitude
Exits shadow 02:32:22 24° 205° (SSW) 1,848 5.6 -21.1°
Maximum altitude 02:36:21 84° 119° (ESE) 928 4.4 -20.3°
Drops below altitude 10° 02:42:12 10° 31° (NNE) 2,488 7.3 -19.2°
Sets 02:44:33 0° 31° (NNE) 3,366 8.0 -18.7°
